"Period start","avg(HW err(1)/warn(2) (#))","avg(Visibility (m))","avg(Weather code (#))","avg(Precip intensity (mm/h))","min(HW err(1)/warn(2) (#))","max(HW err(1)/warn(2) (#))","std(HW err(1)/warn(2) (#))","med(HW err(1)/warn(2) (#))","min(Visibility (m))","max(Visibility (m))","std(Visibility (m))","med(Visibility (m))","min(Weather code (#))","max(Weather code (#))","std(Weather code (#))","med(Weather code (#))","min(Precip intensity (mm/h))","max(Precip intensity (mm/h))","std(Precip intensity (mm/h))","med(Precip intensity (mm/h))"
2014-04-11 00:00:00,2,38399,0,0.00,2,2,0,2,28740,50000,6702,38094,0,0,0,0,0.00,0.00,0.00,0.00
2014-04-11 00:10:00,2,37648,0,0.00,2,2,0,2,25906,47623,6091,37556,0,0,0,0,0.00,0.00,0.00,0.00
2014-04-11 00:20:00,2,38910,0,0.00,2,2,0,2,32656,50000,5263,37202,0,0,0,0,0.00,0.00,0.00,0.00
2014-04-11 00:30:00,2,42026,0,0.00,2,2,0,2,31449,47077,4779,43610,0,0,0,0,0.00,0.00,0.00,0.00
2014-04-11 00:40:00,2,44957,0,0.00,2,2,0,2,39865,50000,3448,44710,0,0,0,0,0.00,0.00,0.00,0.00
2014-04-11 00:50:00,2,41045,0,0.00,2,2,0,2,29709,50000,6546,42090,0,0,0,0,0.00,0.00,0.00,0.00
2014-04-11 01:00:00,2,35289,0,0.00,2,2,0,2,26812,49545,6186,35057,0,0,0,0,0.00,0.00,0.00,0.00
2014-04-11 01:10:00,2,35939,0,0.00,2,2,0,2,25431,49175,7628,35491,0,0,0,0,0.00,0.00,0.00,0.00
2014-04-11 01:20:00,2,34026,0,0.00,2,2,0,2,26519,40549,4416,34466,0,0,0,0,0.00,0.00,0.00,0.00
2014-04-11 01:30:00,2,41575,0,0.00,2,2,0,2,29855,50000,7208,42566,0,0,0,0,0.00,0.00,0.00,0.00
2014-04-11 01:40:00,2,28314,0,0.00,2,2,0,2,21040,38752,6205,25594,0,0,0,0,0.00,0.00,0.00,0.00
2014-04-11 01:50:00,2,31139,0,0.00,2,2,0,2,18048,46971,9182,28929,0,0,0,0,0.00,0.00,0.00,0.00
2014-04-11 02:00:00,2,36792,0,0.00,2,2,0,2,22968,47295,7716,37088,0,0,0,0,0.00,0.00,0.00,0.00
2014-04-11 02:10:00,2,36433,0,0.00,2,2,0,2,24680,46527,7049,36456,0,0,0,0,0.00,0.00,0.00,0.00
2014-04-11 02:20:00,2,35445,0,0.00,2,2,0,2,24453,45812,6085,35740,0,0,0,0,0.00,0.00,0.00,0.00
2014-04-11 02:30:00,2,38450,0,0.00,2,2,0,2,33364,46938,4513,37581,0,0,0,0,0.00,0.00,0.00,0.00
2014-04-11 02:40:00,2,40836,0,0.00,2,2,0,2,25488,50000,6889,42739,0,0,0,0,0.00,0.00,0.00,0.00
2014-04-11 02:50:00,2,37296,0,0.00,2,2,0,2,27259,50000,6687,36960,0,0,0,0,0.00,0.00,0.00,0.00
2014-04-11 03:00:00,2,30585,0,0.00,2,2,0,2,20534,43781,6868,28513,0,0,0,0,0.00,0.00,0.00,0.00
2014-04-11 03:10:00,2,34864,0,0.00,2,2,0,2,24066,44937,7062,35300,0,0,0,0,0.00,0.00,0.00,0.00
2014-04-11 03:20:00,2,31770,0,0.00,2,2,0,2,22046,44749,6648,31728,0,0,0,0,0.00,0.00,0.00,0.00
2014-04-11 03:30:00,2,35955,0,0.00,2,2,0,2,20860,50000,9881,37546,0,0,0,0,0.00,0.00,0.00,0.00
2014-04-11 03:40:00,2,34156,0,0.00,2,2,0,2,21367,46967,8365,33238,0,0,0,0,0.00,0.00,0.00,0.00
2014-04-11 03:50:00,2,31775,0,0.00,2,2,0,2,21772,38805,5871,33092,0,0,0,0,0.00,0.00,0.00,0.00
2014-04-11 04:00:00,2,32076,0,0.00,2,2,0,2,21187,42505,6437,32134,0,0,0,0,0.00,0.00,0.00,0.00
2014-04-11 04:10:00,2,28721,0,0.00,2,2,0,2,17914,46561,9552,25900,0,0,0,0,0.00,0.00,0.00,0.00
2014-04-11 04:20:00,2,30100,0,0.00,2,2,0,2,19416,42173,7923,30294,0,0,0,0,0.00,0.00,0.00,0.00
2014-04-11 04:30:00,2,30583,0,0.00,2,2,0,2,20372,38124,6094,33068,0,0,0,0,0.00,0.00,0.00,0.00
2014-04-11 04:40:00,2,16453,0,0.00,2,2,0,2,13690,19218,1423,16432,0,0,0,0,0.00,0.00,0.00,0.00
2014-04-11 04:50:00,2,17529,0,0.00,2,2,0,2,12284,23560,3217,16584,0,0,0,0,0.00,0.00,0.00,0.00
2014-04-11 05:00:00,2,17181,13,0.07,2,2,0,2,11021,21115,3217,16684,0,61,22,0,0.00,0.70,0.20,0.00
2014-04-11 05:10:00,2,10689,55,0.21,2,2,0,2,9552,12043,737,10406,51,61,5,51,0.00,0.50,0.17,0.17
2014-04-11 05:20:00,2,8918,51,0.29,2,2,0,2,7464,11436,1160,8656,51,51,0,51,0.05,1.05,0.28,0.23
2014-04-11 05:30:00,2,8009,41,0.21,2,2,0,2,5498,11803,1936,7548,10,61,25,61,0.00,1.25,0.38,0.03
2014-04-11 05:40:00,2,6371,51,1.25,2,2,0,2,5155,7200,623,6278,10,61,14,51,0.00,3.95,1.10,1.08
2014-04-11 05:50:00,2,8846,51,0.42,2,2,0,2,7194,10955,1269,8676,51,51,0,51,0.15,1.25,0.33,0.32
2014-04-11 06:00:00,2,11953,55,0.10,2,2,0,2,8489,16696,2640,11444,51,61,5,51,0.00,0.25,0.09,0.08
2014-04-11 06:10:00,2,12083,58,1.55,2,2,0,2,8777,19992,3509,10784,51,61,5,61,0.15,3.05,1.01,1.35
2014-04-11 06:20:00,2,10284,61,1.28,2,2,0,2,8735,13393,1508,9899,61,61,0,61,0.50,2.85,0.68,1.10
2014-04-11 06:30:00,2,10377,61,0.53,2,2,0,2,9184,11538,652,10342,61,61,0,61,0.00,1.90,0.64,0.25
2014-04-11 06:40:00,2,9839,56,0.45,2,2,0,2,8726,10921,636,9725,51,61,5,56,0.10,1.00,0.29,0.45
2014-04-11 06:50:00,2,11929,5,0.01,2,2,0,2,8789,16621,2698,11254,0,51,15,0,0.00,0.10,0.03,0.00
2014-04-11 07:00:00,2,28199,0,0.00,2,2,0,2,19921,36326,5885,28660,0,0,0,0,0.00,0.00,0.00,0.00
2014-04-11 07:10:00,2,42348,0,0.00,2,2,0,2,31767,50000,6652,41126,0,0,0,0,0.00,0.00,0.00,0.00
2014-04-11 07:20:00,2,41429,0,0.00,2,2,0,2,29133,50000,7010,43366,0,0,0,0,0.00,0.00,0.00,0.00
2014-04-11 07:30:00,2,40314,0,0.00,2,2,0,2,29983,50000,7750,38271,0,0,0,0,0.00,0.00,0.00,0.00
2014-04-11 07:40:00,2,40044,0,0.00,2,2,0,2,35186,43345,2545,40710,0,0,0,0,0.00,0.00,0.00,0.00
2014-04-11 07:50:00,2,39965,0,0.00,2,2,0,2,31438,50000,5606,38686,0,0,0,0,0.00,0.00,0.00,0.00
2014-04-11 08:00:00,2,45003,0,0.00,2,2,0,2,39354,49384,3442,46326,0,0,0,0,0.00,0.00,0.00,0.00
2014-04-11 08:10:00,2,30130,13,0.31,2,2,0,2,14062,40216,8432,32689,0,52,20,0,0.00,2.00,0.60,0.00
2014-04-11 08:20:00,1,4365,52,3.00,1,2,0,1,4365,4365,0,4365,52,52,0,52,3.00,3.00,0.00,3.00
2014-04-11 08:30:00,1,,,,1,1,0,1,,,,,,,,,,,,
2014-04-11 08:40:00,2,21231,58,0.90,1,2,0,2,9230,44338,11408,18345,51,61,5,61,0.05,3.15,0.98,0.55
2014-04-11 08:50:00,2,4690,68,3.79,2,2,0,2,845,20419,5500,2532,61,71,5,71,0.35,10.05,2.90,3.00
2014-04-11 09:00:00,2,26096,27,0.11,2,2,0,2,8452,50000,13104,24483,0,71,34,0,0.00,0.50,0.18,0.00
2014-04-11 09:10:00,2,48235,0,0.00,2,2,0,2,43019,50000,2447,49590,0,0,0,0,0.00,0.00,0.00,0.00
2014-04-11 09:20:00,2,48463,0,0.00,2,2,0,2,38978,50000,3276,50000,0,0,0,0,0.00,0.00,0.00,0.00
2014-04-11 09:30:00,2,41648,0,0.00,2,2,0,2,28334,49995,5504,41884,0,0,0,0,0.00,0.00,0.00,0.00
2014-04-11 09:40:00,2,49004,0,0.00,2,2,0,2,44675,50000,1720,50000,0,0,0,0,0.00,0.00,0.00,0.00
2014-04-11 09:50:00,2,47037,0,0.00,2,2,0,2,41683,50000,3212,48565,0,0,0,0,0.00,0.00,0.00,0.00
2014-04-11 10:00:00,2,48987,0,0.00,2,2,0,2,42805,50000,2239,50000,0,0,0,0,0.00,0.00,0.00,0.00
2014-04-11 10:10:00,2,49989,0,0.00,2,2,0,2,49889,50000,33,50000,0,0,0,0,0.00,0.00,0.00,0.00
2014-04-11 10:20:00,2,49731,0,0.00,2,2,0,2,47314,50000,806,50000,0,0,0,0,0.00,0.00,0.00,0.00
2014-04-11 10:30:00,2,49219,0,0.00,2,2,0,2,44799,50000,1577,50000,0,0,0,0,0.00,0.00,0.00,0.00
2014-04-11 10:40:00,2,50000,0,0.00,2,2,0,2,50000,50000,0,50000,0,0,0,0,0.00,0.00,0.00,0.00
2014-04-11 10:50:00,2,41687,8,0.06,2,2,0,2,5367,50000,16629,50000,0,40,16,0,0.00,0.50,0.15,0.00
2014-04-11 11:00:00,2,3763,68,1.66,2,2,0,2,889,7287,2352,3110,40,71,9,71,0.15,5.25,1.67,1.12
2014-04-11 11:10:00,2,1253,71,4.83,2,2,0,2,433,4415,1146,805,71,72,0,71,0.50,15.25,4.08,3.90
2014-04-11 11:20:00,2,497,72,12.07,2,2,0,2,262,834,174,465,72,73,0,72,5.85,19.90,4.74,11.93
2014-04-11 11:30:00,2,706,72,5.29,1,2,0,2,317,988,239,745,72,72,0,72,3.20,10.50,2.08,5.05
2014-04-11 11:40:00,1,1053,75,12.35,1,2,0,1,1053,1053,0,1053,75,75,0,75,12.35,12.35,0.00,12.35
2014-04-11 11:50:00,1,,,,1,1,0,1,,,,,,,,,,,,
2014-04-11 12:00:00,2,4518,38,0.72,1,2,0,2,1232,12707,3315,3800,10,41,10,41,0.00,3.65,1.10,0.40
2014-04-11 12:10:00,1,2317,20,0.22,1,2,0,1,1262,3026,761,2663,10,41,15,10,0.00,0.65,0.31,0.00
2014-04-11 12:20:00,1,,,,1,1,0,1,,,,,,,,,,,,
2014-04-11 12:30:00,1,,,,1,1,0,1,,,,,,,,,,,,
2014-04-11 12:40:00,1,,,,1,1,0,1,,,,,,,,,,,,
2014-04-11 12:50:00,1,,,,1,1,0,1,,,,,,,,,,,,
2014-04-11 13:00:00,1,,,,1,1,0,1,,,,,,,,,,,,
2014-04-11 13:10:00,1,,,,1,1,0,1,,,,,,,,,,,,
2014-04-11 13:20:00,1,,,,1,1,0,1,,,,,,,,,,,,
2014-04-11 13:30:00,1,,,,1,1,0,1,,,,,,,,,,,,
2014-04-11 13:40:00,1,,,,1,1,0,1,,,,,,,,,,,,
2014-04-11 13:50:00,1,,,,1,1,0,1,,,,,,,,,,,,
2014-04-11 14:00:00,1,,,,1,1,0,1,,,,,,,,,,,,
2014-04-11 14:10:00,1,,,,1,1,0,1,,,,,,,,,,,,
2014-04-11 14:20:00,1,,,,1,1,0,1,,,,,,,,,,,,
2014-04-11 14:30:00,1,,,,1,1,0,1,,,,,,,,,,,,
2014-04-11 14:40:00,1,,,,1,1,0,1,,,,,,,,,,,,
2014-04-11 14:50:00,1,,,,1,1,0,1,,,,,,,,,,,,
2014-04-11 15:00:00,1,,,,1,1,0,1,,,,,,,,,,,,
2014-04-11 15:10:00,1,,,,1,1,0,1,,,,,,,,,,,,
2014-04-11 15:20:00,1,,,,1,1,0,1,,,,,,,,,,,,
2014-04-11 15:30:00,1,,,,1,1,0,1,,,,,,,,,,,,
2014-04-11 15:40:00,1,,,,1,1,0,1,,,,,,,,,,,,
2014-04-11 15:50:00,1,,,,1,1,0,1,,,,,,,,,,,,
2014-04-11 16:00:00,1,,,,1,1,0,1,,,,,,,,,,,,
2014-04-11 16:10:00,1,,,,1,1,0,1,,,,,,,,,,,,
2014-04-11 16:20:00,1,,,,1,1,0,1,,,,,,,,,,,,
2014-04-11 16:30:00,1,,,,1,1,0,1,,,,,,,,,,,,
2014-04-11 16:40:00,1,,,,1,1,0,1,,,,,,,,,,,,
2014-04-11 16:50:00,1,,,,1,1,0,1,,,,,,,,,,,,
2014-04-11 17:00:00,1,0,,0.00,1,2,0,1,0,0,0,0,,,,,0.00,0.00,0.00,0.00
2014-04-11 17:10:00,2,12224,0,0.00,1,2,0,2,0,14865,5005,14199,0,0,0,0,0.00,0.00,0.00,0.00
2014-04-11 17:20:00,2,14424,0,0.00,2,2,0,2,13631,15080,477,14430,0,0,0,0,0.00,0.00,0.00,0.00
2014-04-11 17:30:00,2,14145,0,0.00,2,2,0,2,13461,14736,415,14260,0,0,0,0,0.00,0.00,0.00,0.00
2014-04-11 17:40:00,2,14069,0,0.00,2,2,0,2,13470,15142,489,14026,0,0,0,0,0.00,0.00,0.00,0.00
2014-04-11 17:50:00,2,14017,0,0.00,2,2,0,2,13598,14613,263,13984,0,0,0,0,0.00,0.00,0.00,0.00
2014-04-11 18:00:00,2,13876,0,0.00,2,2,0,2,12917,14527,481,13905,0,0,0,0,0.00,0.00,0.00,0.00
2014-04-11 18:10:00,2,14075,0,0.00,2,2,0,2,12814,14768,581,14118,0,0,0,0,0.00,0.00,0.00,0.00
2014-04-11 18:20:00,2,13396,0,0.00,2,2,0,2,12512,14182,484,13478,0,0,0,0,0.00,0.00,0.00,0.00
2014-04-11 18:30:00,2,13860,0,0.00,2,2,0,2,12872,14690,573,13780,0,0,0,0,0.00,0.00,0.00,0.00
2014-04-11 18:40:00,2,13929,0,0.00,2,2,0,2,13363,14608,344,13920,0,0,0,0,0.00,0.00,0.00,0.00
2014-04-11 18:50:00,2,13852,0,0.00,2,2,0,2,13394,14625,329,13736,0,0,0,0,0.00,0.00,0.00,0.00
2014-04-11 19:00:00,2,13486,0,0.00,2,2,0,2,12617,13916,431,13718,0,0,0,0,0.00,0.00,0.00,0.00
2014-04-11 19:10:00,2,13584,0,0.00,2,2,0,2,12810,14841,511,13580,0,0,0,0,0.00,0.00,0.00,0.00
2014-04-11 19:20:00,2,13952,0,0.00,2,2,0,2,13664,14482,269,13862,0,0,0,0,0.00,0.00,0.00,0.00
2014-04-11 19:30:00,2,13623,0,0.00,2,2,0,2,12836,14458,428,13629,0,0,0,0,0.00,0.00,0.00,0.00
2014-04-11 19:40:00,2,14483,0,0.00,2,2,0,2,13270,15179,566,14579,0,0,0,0,0.00,0.00,0.00,0.00
2014-04-11 19:50:00,2,15056,0,0.00,2,2,0,2,13841,16341,810,14912,0,0,0,0,0.00,0.00,0.00,0.00
2014-04-11 20:00:00,2,15070,0,0.00,2,2,0,2,13742,16370,717,14906,0,0,0,0,0.00,0.00,0.00,0.00
2014-04-11 20:10:00,2,15100,0,0.00,2,2,0,2,13528,16621,817,15230,0,0,0,0,0.00,0.00,0.00,0.00
2014-04-11 20:20:00,2,14225,0,0.00,2,2,0,2,13423,14943,457,14318,0,0,0,0,0.00,0.00,0.00,0.00
2014-04-11 20:30:00,2,14681,0,0.00,2,2,0,2,13608,16600,958,14219,0,0,0,0,0.00,0.00,0.00,0.00
2014-04-11 20:40:00,2,14687,0,0.00,2,2,0,2,12439,17726,1733,14274,0,0,0,0,0.00,0.00,0.00,0.00
2014-04-11 20:50:00,2,14158,0,0.00,2,2,0,2,12132,16439,1275,14412,0,0,0,0,0.00,0.00,0.00,0.00
2014-04-11 21:00:00,2,14458,0,0.00,2,2,0,2,9992,16151,1879,14898,0,0,0,0,0.00,0.00,0.00,0.00
2014-04-11 21:10:00,2,14704,0,0.00,2,2,0,2,12235,16825,1446,15054,0,0,0,0,0.00,0.00,0.00,0.00
2014-04-11 21:20:00,2,15423,0,0.00,2,2,0,2,14130,17433,1151,14902,0,0,0,0,0.00,0.00,0.00,0.00
2014-04-11 21:30:00,2,16145,0,0.00,2,2,0,2,14276,17697,1086,16414,0,0,0,0,0.00,0.00,0.00,0.00
2014-04-11 21:40:00,2,15936,0,0.00,2,2,0,2,14528,18070,1112,15742,0,0,0,0,0.00,0.00,0.00,0.00
2014-04-11 21:50:00,2,15676,0,0.00,2,2,0,2,13945,19206,1869,14859,0,0,0,0,0.00,0.00,0.00,0.00
2014-04-11 22:00:00,2,16743,0,0.00,2,2,0,2,13147,20855,2508,17591,0,0,0,0,0.00,0.00,0.00,0.00
2014-04-11 22:10:00,2,16654,0,0.00,1,2,0,2,13751,19934,2118,16014,0,0,0,0,0.00,0.00,0.00,0.00
2014-04-11 22:20:00,2,10892,,0.00,1,2,0,2,0,18711,7795,15108,,,,,0.00,0.00,0.00,0.00
2014-04-11 22:30:00,1,8835,,0.00,1,2,0,1,0,17670,8835,8835,,,,,0.00,0.00,0.00,0.00
2014-04-11 22:40:00,1,0,,0.00,1,2,0,1,0,0,0,0,,,,,0.00,0.00,0.00,0.00
2014-04-11 22:50:00,1,,,,1,1,0,1,,,,,,,,,,,,
2014-04-11 23:00:00,1,,,,1,1,0,1,,,,,,,,,,,,
2014-04-11 23:10:00,1,,,,1,1,0,1,,,,,,,,,,,,
2014-04-11 23:20:00,1,,,,1,1,0,1,,,,,,,,,,,,
2014-04-11 23:30:00,1,,,,1,1,0,1,,,,,,,,,,,,
2014-04-11 23:40:00,1,,,,1,1,0,1,,,,,,,,,,,,
2014-04-11 23:50:00,1,,,,1,1,0,1,,,,,,,,,,,,
